This is the latest recevied weather packets stored in our database for station/object SQ5AAG-2. If no packets are shown the sender has not sent any weather packets the latest 10 day(s).
| Time | Temp. | Humidity | Pressure | Rain* | Wind** | Luminosity | Snow |
|---|---|---|---|---|---|---|---|
| 1778050585 | 20.56° C | 48% | 990.5 hPa | 0 mm | - | - | - |
| 1778050285 | 20.56° C | 49% | 990.5 hPa | 0 mm | - | - | - |
| 1778049984 | 20.56° C | 50% | 990.4 hPa | 0 mm | - | - | - |
| 1778049684 | 20.56° C | 50% | 990.5 hPa | 0 mm | - | - | - |
| 1778049384 | 20° C | 51% | 990.3 hPa | 0 mm | - | - | - |
| 1778049192 | 20° C | 51% | 990.5 hPa | 0 mm | - | - | - |
| 1778049086 | 20° C | 51% | 990.5 hPa | 0 mm | - | - | - |
| 1778048783 | 20° C | 50% | 990.6 hPa | 0 mm | - | - | - |
| 1778048483 | 21.11° C | 50% | 990.7 hPa | 0 mm | - | - | - |
| 1778048183 | 22.22° C | 48% | 990.7 hPa | 0 mm | - | - | - |
| 1778047888 | 22.78° C | 49% | 990.9 hPa | 0 mm | - | - | - |
| 1778047882 | 22.78° C | 49% | 990.9 hPa | 0 mm | - | - | - |
| 1778047582 | 22.78° C | 51% | 990.7 hPa | 0 mm | - | - | - |
| 1778047282 | 22.22° C | 52% | 990.7 hPa | 0 mm | - | - | - |
| 1778046981 | 21.67° C | 52% | 990.9 hPa | 0 mm | - | - | - |
| 1778046681 | 21.67° C | 54% | 990.9 hPa | 0 mm | - | - | - |
| 1778046381 | 21.67° C | 56% | 991 hPa | 0 mm | - | - | - |
| 1778046081 | 21.11° C | 58% | 990.9 hPa | 0 mm | - | - | - |
| 1778045780 | 20.56° C | 60% | 990.9 hPa | 0 mm | - | - | - |
| 1778045480 | 20° C | 61% | 990.9 hPa | 0 mm | - | - | - |
| 1778045180 | 20° C | 62% | 991.1 hPa | 0 mm | - | - | - |
| 1778044880 | 19.44° C | 63% | 991 hPa | 0 mm | - | - | - |
| 1778044586 | 19.44° C | - | - | 0 mm | - | - | - |
| 1778044579 | 19.44° C | 63% | 991.1 hPa | 0 mm | - | - | - |
| 1778044279 | 19.44° C | 64% | 991.1 hPa | 0 mm | - | - | - |
* Rain latest hour (hover to see other rain measurements)
** Current wind speed in m/s (hover to see current wind gust speed)